Regional Weather Roundup
Issued by NWS Pendleton, OR

Home | Current Version | Previous Version | Text Only | Print | Product List | Glossary On
Versions: 1 2 3 4 5 6 7 8 9 10 11 12 13 14 15 16 17 18 19 20 21 22 23 24 25 26 27 28 29 30 31 32 33 34 35 36 37 38 39 40 41 42 43 44 45 46 47 48 49 50
000
ASUS46 KPDT 200625
RWRPDT
PENDLETON REGIONAL WEATHER ROUNDUP
NATIONAL WEATHER SERVICE PENDLETON OREGON
1100 PM PDT SAT APR 19 2014

NOTE: FAIR INDICATES FEW OR NO CLOUDS BELOW 12,000 FEET WITH NO
SIGNIFICANT WEATHER AND/OR OBSTRUCTIONS TO VISIBILITY.

# INDICATES UNOFFICIAL STATION AND DATA

WAZ520-200710-
EAST SLOPES OF WASHINGTON CASCADES

CITY            SKY/WX      TMP DP  RH  WIND    PRES   REMARKS
#BUMPING DAM    N/A         35  N/A N/A S2      N/A
#CLE ELUM HS    N/A         39  35  85  W3      30.06R
#CLE ELUM 2NW   N/A         38  35  89  SW2     N/A
#CLE ELUM LAKE  N/A         38  33  82  NW3     30.12R
#CLIFFDEL 2NW   N/A         36  34  92  NW2     N/A
#GLENWOOD       N/A         44  38  79  S3      30.19R
#MANASTASH CYN  N/A         34  28  78  CALM    30.05R
#NELSON         N/A         39  36  89  CALM    30.17R
#NELSON 3SW     N/A         35  33  92  CALM    30.36R
#NILE           N/A         36  32  85  CALM    29.44R
#RONALD 2NW     N/A         39  34  82  W3      29.97R
#TEANAWAY 4NE   N/A         40  36  85  W3      N/A
#TROUT LAKE HS  N/A         44  39  82  CALM    N/A
#TROUT LAKE 1NE N/A         42  38  86  W8      30.19R
$$

WAZ521-200710-
SIMCOE HIGHLANDS

CITY            SKY/WX      TMP DP  RH  WIND    PRES   REMARKS
#BICKLETON HS   N/A         39  31  73  W6      30.12R
#CENTERVILLE 4W N/A         44  37  76  W9      29.91R
#CENTERVILLE 1SWN/A         44  36  73  W15     30.14S WCI 37
#GOLDENDALE 1NE N/A         44  35  70  S6      N/A
#GOLDENDALE 1S  N/A         43  37  79  SW7     28.33R
#GOLDENDALE 5WNWN/A         46  37  71  W15     30.18R WCI 40
#GOODNOE HILLS  N/A         45  38  76  SW9     30.11R
#LYLE 6NE       N/A         46  38  73  W15     30.16R WCI 40
$$

WAZ026-200710-
KITTITAS VALLEY

CITY            SKY/WX      TMP DP  RH  WIND    PRES   REMARKS
ELLENSBURG AP   CLEAR       39  31  73  VRB3    30.09R
6HR MIN TEMP:   38; 6HR MAX TEMP:   58; 6HR PCP:  TRACE;

#ELLENSBURG CWU N/A         42  35  76  CALM    30.06R
#ELLENSBURG 3NE N/A         42  34  73  NW5     30.09R
#ELLENSBURG     N/A         46  38  73  NW8     N/A
#ELLENSBURG 1E  N/A         42  33  70  CALM    N/A
#KITTITAS 4N    N/A         40  31  70  W8      30.26R
#KITTITAS 3S    N/A         40  34  79  CALM    30.10R
#THORP 6N       N/A         40  34  79  NW15G26 30.12R WCI 32
$$

WAZ027-200710-
YAKIMA VALLEY

CITY            SKY/WX      TMP DP  RH  WIND    PRES   REMARKS
YAKIMA AIRPORT  CLEAR       42  31  65  SW8     30.10R
6HR MIN TEMP:   40; 6HR MAX TEMP:   63;

YAKIMA-VAGABOND CLEAR       47  31  53  NW8     30.11R
#COWICHE 1N     N/A         45  32  60  CALM    30.24R
#DONALD 2NE     N/A         45  31  58  SW1     30.44R
#GRANDVIEW      N/A         49  34  56  SW2     30.16R
#MABTON         N/A         50  37  61  SW9     30.14R
#MOXEE 2E       N/A         48  31  51  E3      30.05R
#NACHES 2SW     N/A         42  34  73  NW1     30.07R
#OUTLOOK DOT    N/A         51  34  52  SW9     N/A
#SELAH 8E       N/A         43  30  60  W8      N/A
#TERRACE HTS    N/A         45  33  63  CALM    30.09R
#TOPPENISH      N/A         50  35  56  W3      30.05R
#WAPATO 4NE     N/A         45  31  58  SW1     30.44R
#WEST VALLEY    N/A         44  32  62  SW2     30.14R
#W YAKIMA       N/A         50  32  50  W8      30.10R
#WHITE SWAN 5E  N/A         49  36  61  SW17    30.13R WCI 43
#WILEY CITY 3W  N/A         36  25  64  CALM    30.10R
$$

WAZ028-200710-
LOWER COLUMBIA BASIN...WASHINGTON

CITY            SKY/WX      TMP DP  RH  WIND    PRES   REMARKS
PASCO           CLEAR       52  38  59  W13     30.13R
6HR MIN TEMP:   52; 6HR MAX TEMP:   68;

PROSSER AWOS    N/A         50  36  58  SW15    30.17R
RICHLAND AWOS   CLEAR       52  37  56  W14     30.11R
#BASIN CITY 5SW N/A         49  36  61  W9      30.10R
#BENTON CITY    N/A         51  36  56  S14     30.03R
#CONNELL 5N     N/A         47  35  63  SW9     30.10R
#CONNELL 5NW    N/A         46  36  68  SW7     30.07R
#ELTOPIA        N/A         50  38  63  SW9     30.08R
#ELTOPIA 6NW    N/A         50  37  61  W8      29.07R
#KENNEWICK 3S   N/A         50  38  63  W7      30.13R
#PASCO-BROADMOORN/A         52  38  59  SW5     30.04R
#PATERSON       N/A         51  38  61  W9      30.14R
#PROSSER        N/A         52  33  48  SW10    30.14R
#SAGEMOOR 2W    N/A         50  37  61  SW10    29.96R
#TOUCHET 2S     N/A         50  40  68  W8      30.13R
#WEST PASCO     N/A         52  37  56  SW6     30.13R
$$

WAZ029-200710-
FOOTHILLS OF THE BLUES...WASHINGTON

CITY            SKY/WX      TMP DP  RH  WIND    PRES   REMARKS
WALLA WALLA AP  CLEAR       50  38  63  SW17    30.15R
6HR MIN TEMP:   50; 6HR MAX TEMP:   63;

#COLLEGE PLACE  N/A         51  36  56  S2      30.18R
#LOWDEN 2SE     N/A         50  40  68  W8      30.12R
#PLEASANT VIEW 1N/A         44  34  68  SW9     30.15R
#PRESCOTT       N/A         51  38  61  W10     30.12R
#SUDBURY        N/A         51  N/A N/A SW10    N/A
#WHITMAN COLLEGEN/A         50  39  66  S3      30.21R
#WAITSBURG 8N   N/A         46  26  45  S18     29.94R WCI 39
#WALLA WALLA 5E N/A         48  38  68  S14     N/A    WCI 42
#WHITMAN MISSIONN/A         50  41  71  SW6     30.16R
$$

WAZ030-200710-
BLUE MOUNTAINS...WASHINGTON

CITY            SKY/WX      TMP DP  RH  WIND    PRES   REMARKS
$$

ORZ009-041-WAZ024-200710-
COLUMBIA RIVER GORGE

CITY            SKY/WX      TMP DP  RH  WIND    PRES   REMARKS
HOOD RIVER AP   CLOUDY      50  39  66  NW8     30.19R
THE DALLES AP   CLOUDY      50  40  68  NW5     30.19R
6HR MIN TEMP:   47; 6HR MAX TEMP:   63; 6HR PCP:  TRACE;

#ARLINGTON AIRPON/A         48  40  74  SW14    29.36S WCI 42
#ARLINGTON HS   N/A         51  38  61  NE15    30.11R
#CELILO DOT     N/A         51  37  59  N6      N/A
#MARYHILL 2W    N/A         50  39  66  E7      N/A
#MOSIER 1S      N/A         46  34  63  CALM    30.24R
#MURDOCK        N/A         53  44  71  W8      30.22R
#RUFUS DOT      N/A         46  33  60  N8      N/A

$$

ORZ510-200710-
NORTH CENTRAL OREGON

CITY            SKY/WX      TMP DP  RH  WIND    PRES   REMARKS
#CHENOWITH 1W   N/A         44  37  76  NW6     N/A
#COW CYN RST AREN/A         40  30  67  S3      N/A
#GRASS VALLEY   N/A         42  36  79  SW2     N/A
#GRASS VALLEY 1SN/A         42  34  73  W12     30.19R WCI 35
#KENT DOT       N/A         41  29  62  W10     N/A
#MAUPIN SCHOOL  N/A         49  36  61  W3      30.24R
#SHANIKO 5WSW   N/A         37  27  67  SW8     N/A
#SHANIKO 4NW    N/A         38  31  76  W10     30.16R
#TYGH VALLEY 2NEN/A         47  38  71  W6      30.20R
#WAPANITIA AIRPON/A         43  37  79  W5      30.22
#WASCO DOT      N/A         44  36  73  SE2     N/A
#WASCO 5NE      N/A         43  36  76  CALM    30.20R
$$

ORZ511-200710-
CENTRAL OREGON

CITY            SKY/WX      TMP DP  RH  WIND    PRES   REMARKS
BEND AIRPORT    CLEAR       39  28  64  SW6     30.20R
MADRAS AIRPORT  CLEAR       39  32  76  SW6     30.21R
REDMOND AIRPORT CLEAR       34  29  82  CALM    30.19R
6HR MIN TEMP:   34; 6HR MAX TEMP:   56;

#BEND 6E        N/A         41  28  59  CALM    30.13S
#BEND 1SW       N/A         38  28  67  S2      N/A
#BEND-AWBREY    N/A         40  33  76  NE8     30.19R
#BEND-KIM LN    N/A         40  31  70  SW6     30.16R
#CROOKED RVR RANN/A         42  33  70  W22G31  30.21R WCI 33
#CULVER         N/A         43  31  62  W1      30.17R
#LAKE BILLY CHINN/A         44  20  38  SW6     30.23R
#POWELL BUTTE   N/A         37  29  72  S3      29.83R
#PRINEVILLE 3N  N/A         42  34  73  CALM    30.18R
#WARM SPRINGS   N/A         42  32  67  SE1     30.17R


ORZ509-200710-
EAST SLOPES OF OREGON CASCADES

CITY            SKY/WX      TMP DP  RH  WIND    PRES   REMARKS
#BLUE BOX PASS  N/A         34  -14 11  NW5     N/A
#CAMP SHERMAN   N/A         40  32  73  CALM    30.21R
#LA PINE DOT    N/A         38  28  67  W2      N/A
#LA PINE 4NW    N/A         35  29  78  CALM    30.29R
#LAVA BUTTE DOT N/A         36  29  75  CALM    N/A
#SISTERS AIRPOR N/A         41  36  82  CALM    30.19R
#SISTERS ODOT   N/A         40  N/A N/A CALM    N/A
#SISTERS 3N     N/A         40  30  67  SW3     30.22S
#SUNRIVER       N/A         40  31  70  S1      30.12R
#SUNRIVER AP    N/A         39  30  70  CALM    30.21R
#SUTTLE LK DOT  N/A         30  30  100 W40G66  N/A    WCI 13
#TUMALO 3W      N/A         36  31  82  CALM    30.07R
#WANOGA BUTTE D N/A         29  29  100 W5      N/A

$$

ORZ044-200710-
LOWER COLUMBIA BASIN...OREGON

CITY            SKY/WX      TMP DP  RH  WIND    PRES   REMARKS
HERMISTON       CLEAR       50  39  66  SW10    30.16R
6HR MIN TEMP:   48; 6HR MAX TEMP:   63;

#BOARDMAN SCHOOLN/A         52  39  61  W7      30.15R
#BOARDMAN 3W    N/A         50  40  68  W8      29.91R
#BOARDMAN 8SW   N/A         49  40  71  SW8     30.18R
#IONE SCHOOL    N/A         45  35  68  W5      30.16R
#IRRIGON 4NW    N/A         52  41  66  SW13    N/A
#UMATILLA SCHOOLN/A         48  44  86  W6      30.22R
#UMATILLA       N/A         51  38  61  SW7     30.14R
$$

ORZ507-200710-
NORTHERN FOOTHILLS OF THE BLUES

CITY            SKY/WX      TMP DP  RH  WIND    PRES   REMARKS
PENDLETON AIRPT CLEAR       46  37  71  NW16    30.15R WCI 39
6HR MIN TEMP:   46; 6HR MAX TEMP:   58;

#ADAMS 3WNW     N/A         45  38  76  SW10    30.17R
#ATHENA         N/A         47  38  71  W3      30.19R
#HELIX SCHOOL   N/A         45  38  76  N16G26  30.14R WCI 38
#HELIX 3N       N/A         44  38  79  SW16G25 30.10R WCI 37
#M-F FERNDALE   N/A         50  38  63  CALM    30.15R
#M-F GROVE ELEM N/A         48  36  63  CALM    30.15R
#M-FREEWATER 5SEN/A         48  38  68  S3      30.16R
#PDT AQUATIC CTRN/A         49  34  56  NW2     30.16R
#PENDLETON DNTN N/A         48  31  51  NW1     30.13R
#PDT SUNRIDGE   N/A         47  38  71  W3      30.19R
#PILOT ROCK     N/A         43  33  67  CALM    30.19R
#TUTUILLA       N/A         43  36  76  S2      30.12R
#UMAPINE 2E     N/A         47  39  74  S1      30.09R
#WESTON SCHOOL  N/A         45  35  68  W7      30.21R

$$

ORZ508-200710-
SOUTHERN FOOTHILLS OF THE BLUES

CITY            SKY/WX      TMP DP  RH  WIND    PRES   REMARKS
LEXINGTON       CLEAR       45  36  70  SW7     30.20R
#AJAX           N/A         45  32  60  N9      30.18R
#CONDON SCHOOL  N/A         43  34  70  W8      30.13R
#CONDON 5W      N/A         40  31  70  SW10    30.13R
#FOSSIL SCHOOL  N/A         43  33  67  SE2     30.14R
#HEPPNER 4NE    N/A         41  34  76  W6      30.18R
#LEXINGTON 2SE  N/A         47  36  65  W3      30.15R
#MIKKALO        N/A         46  34  63  W2      30.18R
#OLEX 4N        N/A         46  38  73  SW6     30.18R
#RUGGS 5NE      N/A         38  31  76  SW2     30.36S
#RUGGS 2SW      N/A         41  32  70  W7      30.22R

$$

ORZ502-503-200710-
BLUE MOUNTAINS

CITY            SKY/WX      TMP DP  RH  WIND    PRES   REMARKS
MEACHAM         CLOUDY      41  34  76  VRB5    30.15R
6HR MIN TEMP:   41; 6HR MAX TEMP:   52; 6HR PCP:  TRACE;

#BATTLE MTN DOT N/A         36  34  92  NW3     N/A
#HARDMAN 10S    N/A         36  29  75  CALM    30.19R
#HEPPNER 15SE   N/A         37  33  85  NW3     30.07R
#LADD CYN SMT   N/A         41  31  67  NW14    N/A    WCI 33
#LADD CREEK ODOTN/A         44  35  70  NE3     N/A
#LONG CREEK HS  N/A         42  34  73  NW7     30.11R
#N POWDER DOT   N/A         43  36  76  NE15    N/A    WCI 36
#TOLLGATE       N/A         33  32  96  S6      30.06R
#TOLLGATE 9W    N/A         41  37  86  W5      N/A
#TROY SCHOOL    N/A         54  36  50  SW6     29.98R
#UKIAH          N/A         39  33  79  W2      30.20R
#WESTON 4E      N/A         41  36  82  SW7     30.09R
$$

ORZ505-200710-
JOHN DAY BASIN

CITY            SKY/WX      TMP DP  RH  WIND    PRES   REMARKS
JOHN DAY        PTCLDY      45  32  60  W7      30.17R
#JOHN DAY KJDY  N/A         61  52  72  NW5     29.95S
#DAYVILLE SCHOOLN/A         48  31  51  CALM    30.13R
#MONUMENT HS    N/A         48  29  47  CALM    30.12R
#MT. VERNON 5SE N/A         43  30  60  CALM    30.11R
$$

ORZ506-200710-
OCHOCO AND JOHN DAY HIGHLANDS

CITY            SKY/WX      TMP DP  RH  WIND    PRES   REMARKS
#ANTONE         N/A         32  N/A N/A CALM    N/A
#HORSE RIDGE DO N/A         35  27  72  S2      N/A
#KEYES SMT DOT  N/A         37  29  72  SW2     N/A
#PAULINA SCHOOL N/A         48  29  47  W3      30.13R
#PINE MTN OBS   N/A         30  26  85  W2      N/A
#PRAIRIE CITY   N/A         41  29  62  CALM    30.24R
#SENECA 9NW     N/A         37  28  70  CALM    30.14R
$$

ORZ049-200710-
GRANDE RONDE VALLEY

CITY            SKY/WX      TMP DP  RH  WIND    PRES   REMARKS
LA GRANDE       MOCLDY      45  28  51  CALM    30.15R
#COVE           N/A         44  36  73  CALM    30.08R
#COVE SCHOOL    N/A         44  36  73  CALM    30.13R
#COVE 6NW       N/A         42  33  70  CALM    30.22R
#ELGIN 3N       N/A         46  32  58  CALM    29.86R
#ELGIN 1E       N/A         47  35  63  CALM    N/A
#IMBLER SCHOOL  N/A         45  33  63  CALM    30.10R
#ISLAND CITY 4N N/A         46  36  68  W2      30.11R
#LADD CYN DOT   N/A         44  32  62  CALM    N/A
#LA GRANDE ELEM N/A         46  35  65  W3      30.13R
#UNION 1S       N/A         46  36  68  N3      30.06R
$$

ORZ050-200710-
WALLOWA COUNTY

CITY            SKY/WX      TMP DP  RH  WIND    PRES   REMARKS
JOSEPH AIRPORT  CLOUDY      43  32  65  N12     30.12R WCI 37
#ENTERPRISE HS  N/A         43  34  70  N6      30.12R
#IMNAHA SCHOOL  N/A         54  31  41  CALM    30.05R
#JOSEPH 3N      N/A         40  37  89  N9      30.12R
#LOSTINE        N/A         44  33  65  NW5     29.96R
#MT HOWARD 8000 N/A         27  21  78  W5      30.08R
#PROMISE 1S     N/A         43  33  67  E7      30.21R
#SHEEP RDG 7000 N/A         30  22  72  CALM    30.05R
#WALLOWA SCHOOL N/A         45  33  63  W1      31.11R



$$



USA.gov is the U.S. government's official web portal to all federal, state and local government web resources and services.